This is the latest recevied weather packets stored in our database for station/object KD9CCP. If no packets are shown the sender has not sent any weather packets the latest 10 day(s).
| Time | Temp. | Humidity | Pressure | Rain* | Wind** | Luminosity | Snow |
|---|---|---|---|---|---|---|---|
| 1777862299 | 8.89° C | 63% | 1005 hPa | 0 mm | - | 0 W/m² | - |
| 1777861995 | 8.89° C | 62% | 1004.9 hPa | 0 mm | - | 0 W/m² | - |
| 1777861691 | 8.89° C | 61% | 1004.9 hPa | 0 mm | - | 0 W/m² | - |
| 1777861388 | 8.89° C | 53% | 1005 hPa | 0 mm | - | 0 W/m² | - |
| 1777861084 | 8.89° C | 53% | 1005 hPa | 0 mm | - | 0 W/m² | - |
| 1777860782 | 9.44° C | 54% | 1005.1 hPa | 0 mm | - | 0 W/m² | - |
| 1777860479 | 9.44° C | 53% | 1005 hPa | 0 mm | - | 0 W/m² | - |
| 1777860175 | 9.44° C | 53% | 1004.9 hPa | 0 mm | - | 0 W/m² | - |
| 1777859871 | 9.44° C | 53% | 1005 hPa | 0 mm | - | 0 W/m² | - |
| 1777859568 | 10° C | 49% | 1005.2 hPa | 0 mm | - | 0 W/m² | - |
| 1777859264 | 10° C | 48% | 1005.1 hPa | 0 mm | - | 0 W/m² | - |
| 1777858960 | 10° C | 48% | 1004.9 hPa | 0 mm | - | 0 W/m² | - |
| 1777858658 | 10.56° C | 48% | 1005 hPa | 0 mm | - | 0 W/m² | - |
| 1777858356 | 11.11° C | 45% | 1004.8 hPa | 0 mm | - | 0 W/m² | - |
| 1777858052 | 11.67° C | 45% | 1005.1 hPa | 0 mm | - | 0 W/m² | - |
| 1777857750 | 11.67° C | 45% | 1004.8 hPa | 0 mm | - | 0 W/m² | - |
| 1777857447 | 12.22° C | 45% | 1005 hPa | 0 mm | - | 0 W/m² | - |
| 1777857143 | 12.22° C | 41% | 1005 hPa | 0 mm | - | 0 W/m² | - |
| 1777856839 | 12.78° C | 42% | 1005 hPa | 0 mm | - | 0 W/m² | - |
| 1777856535 | 13.33° C | 41% | 1004.9 hPa | 0 mm | - | 0 W/m² | - |
| 1777856232 | 13.89° C | 38% | 1004.9 hPa | 0 mm | - | 0 W/m² | - |
| 1777855929 | 13.89° C | 38% | 1005 hPa | 0 mm | - | 2 W/m² | - |
| 1777855627 | 13.89° C | 38% | 1004.7 hPa | 0 mm | - | 3 W/m² | - |
| 1777855324 | 13.89° C | 38% | 1005 hPa | 0 mm | - | 4 W/m² | - |
| 1777855021 | 14.44° C | 38% | 1004.9 hPa | 0 mm | - | 4 W/m² | - |
* Rain latest hour (hover to see other rain measurements)
** Current wind speed in m/s (hover to see current wind gust speed)